User: anonymous   Login
Location: Pine Mountain Observatory
(43.7910°N, 120.9377°W)
Time: 09:31:45
(UTC-07:00)
Language:

APEX - Orbit

View from above orbital plane
View from above orbital plane
View from above satellite
View from above satellite

Ground track
Ground track

The orbit data is extracted from the following two-line orbital elements,

1 23191U 94046A   15182.07178637  .00009053  00000-0  34131-3 0  9997
2 23191 069.9306 062.1248 0676738 152.5575 321.1444 14.19958029 13990
Epoch (UTC): 01 July 2015 01:43:22
Eccentricity: 0.0676738
inclination: 69.9306°
perigee height: 338 km
apogee height: 1313 km
right ascension of ascending node: 62.1248°
argument of perigee: 152.5575°
revolutions per day: 14.19958029
mean anomaly at epoch: 321.1444°
orbit number at epoch: 1399

The dashed part of the orbit path shows where the satellite is in the earth's shadow,  

DLR